When you browse on this site, cookies collect data to enhance your experience and personalize the content and advertising you see.
Visit our Privacy Policy to learn more. By continuing to use the site, you agree to this use of cookies and data.
  • In Austria
  • List of Countries
  • For 7 days
  • Water Temperature
  • Weather Map
  • News
  • Weather Widgets
  • user-avatar
    Login

    Hourly Weather Albany

    Today, 26 February, Wednesday

    Time Temperature Precipitation Wind Pressure Humidity
    00:00 +16°C° 0 mm 5 mps 761 mmHg 81%
    01:00 +16°C° 0 mm 5 mps 761 mmHg 79%
    02:00 +18°C° 0 mm 4 mps 761 mmHg 76%
    03:00 +17°C° 0 mm 5 mps 761 mmHg 76%
    04:00 +17°C° 0 mm 5 mps 761 mmHg 77%
    05:00 +17°C° 0 mm 5 mps 761 mmHg 77%
    06:00 +17°C° 0 mm 5 mps 761 mmHg 74%
    07:00 +19°C° 0 mm 5 mps 761 mmHg 71%
    08:00 +20°C° 0 mm 6 mps 762 mmHg 69%
    09:00 +21°C° 0 mm 6 mps 761 mmHg 66%
    10:00 +22°C° 0 mm 6 mps 761 mmHg 63%
    11:00 +23°C° 0 mm 6 mps 761 mmHg 59%
    12:00 +23°C° 0 mm 7 mps 761 mmHg 60%
    13:00 +23°C° 0 mm 7 mps 760 mmHg 60%
    14:00 +23°C° 0 mm 7 mps 760 mmHg 63%
    15:00 +22°C° 0 mm 7 mps 760 mmHg 67%
    16:00 +22°C° 0 mm 7 mps 760 mmHg 70%
    17:00 +21°C° 0 mm 7 mps 760 mmHg 73%
    18:00 +20°C° 0 mm 7 mps 760 mmHg 77%
    19:00 +18°C° 0 mm 7 mps 760 mmHg 80%
    20:00 +18°C° 0 mm 7 mps 760 mmHg 84%
    21:00 +18°C° 0 mm 7 mps 760 mmHg 83%
    22:00 +19°C° 0 mm 6 mps 761 mmHg 83%
    23:00 +19°C° 0 mm 6 mps 761 mmHg 82%

    Tomorrow, 27 February, Thursday

    Time Temperature Precipitation Wind Pressure Humidity
    00:00 +18°C° 0 mm 7 mps 760 mmHg 82%
    01:00 +18°C° 0 mm 7 mps 760 mmHg 83%
    02:00 +18°C° 0 mm 7 mps 760 mmHg 83%
    03:00 +18°C° 0 mm 7 mps 760 mmHg 83%
    04:00 +18°C° 0 mm 7 mps 760 mmHg 82%
    05:00 +18°C° 0 mm 7 mps 760 mmHg 82%
    06:00 +18°C° 0 mm 7 mps 760 mmHg 82%
    07:00 +20°C° 0 mm 7 mps 760 mmHg 81%
    08:00 +20°C° 0 mm 7 mps 760 mmHg 80%
    09:00 +21°C° 0 mm 7 mps 760 mmHg 77%
    10:00 +21°C° 0 mm 7 mps 760 mmHg 75%
    11:00 +22°C° 0 mm 7 mps 760 mmHg 72%
    12:00 +23°C° 0 mm 7 mps 760 mmHg 71%
    13:00 +23°C° 0 mm 7 mps 759 mmHg 70%
    14:00 +23°C° 0 mm 7 mps 758 mmHg 69%
    15:00 +23°C° 0.2 mm 7 mps 758 mmHg 74%
    16:00 +22°C° 0.2 mm 7 mps 758 mmHg 79%
    17:00 +21°C° 0.2 mm 7 mps 758 mmHg 83%
    18:00 +21°C° 0.1 mm 7 mps 758 mmHg 85%
    19:00 +20°C° 0.1 mm 8 mps 758 mmHg 87%
    20:00 +20°C° 0.1 mm 8 mps 757 mmHg 89%
    21:00 +20°C° 0 mm 7 mps 757 mmHg 87%
    22:00 +20°C° 0 mm 7 mps 757 mmHg 86%
    23:00 +20°C° 0 mm 6 mps 757 mmHg 84%

    Day after tomorrow, 28 February, Friday

    Time Temperature Precipitation Wind Pressure Humidity
    00:00 +20°C° 0.1 mm 5 mps 756 mmHg 83%
    01:00 +20°C° 0.1 mm 5 mps 755 mmHg 82%
    02:00 +20°C° 0.1 mm 4 mps 755 mmHg 81%
    03:00 +21°C° 0.2 mm 4 mps 755 mmHg 81%
    04:00 +21°C° 0.2 mm 5 mps 754 mmHg 80%
    05:00 +21°C° 0.2 mm 5 mps 754 mmHg 80%
    06:00 +22°C° 0.6 mm 5 mps 754 mmHg 77%
    07:00 +23°C° 0.6 mm 5 mps 754 mmHg 74%
    08:00 +23°C° 0.6 mm 6 mps 754 mmHg 71%
    09:00 +24°C° 0.6 mm 6 mps 754 mmHg 70%
    10:00 +26°C° 0.6 mm 6 mps 754 mmHg 69%
    11:00 +26°C° 0.6 mm 7 mps 754 mmHg 67%
    12:00 +26°C° 0.6 mm 7 mps 753 mmHg 65%
    13:00 +27°C° 0.6 mm 7 mps 753 mmHg 63%
    14:00 +27°C° 0.6 mm 7 mps 752 mmHg 61%
    15:00 +27°C° 0.1 mm 7 mps 752 mmHg 59%
    16:00 +28°C° 0.1 mm 7 mps 752 mmHg 56%
    17:00 +28°C° 0.1 mm 6 mps 751 mmHg 54%
    18:00 +27°C° 0 mm 6 mps 751 mmHg 58%
    19:00 +26°C° 0 mm 6 mps 752 mmHg 63%
    20:00 +25°C° 0 mm 5 mps 752 mmHg 67%
    21:00 +23°C° 0 mm 5 mps 752 mmHg 69%
    22:00 +23°C° 0 mm 5 mps 751 mmHg 71%
    23:00 +22°C° 0 mm 5 mps 751 mmHg 73%

    29 February, Saturday

    Time Temperature Precipitation Wind Pressure Humidity
    00:00 +22°C° 0 mm 5 mps 751 mmHg 75%
    01:00 +22°C° 0 mm 5 mps 751 mmHg 76%
    02:00 +22°C° 0 mm 4 mps 751 mmHg 78%
    03:00 +22°C° 0 mm 4 mps 751 mmHg 80%
    04:00 +22°C° 0 mm 3 mps 751 mmHg 83%
    05:00 +21°C° 0 mm 3 mps 751 mmHg 86%
    06:00 +22°C° 0 mm 3 mps 751 mmHg 82%
    07:00 +22°C° 0 mm 3 mps 752 mmHg 79%
    08:00 +22°C° 0 mm 4 mps 752 mmHg 76%
    09:00 +26°C° 0 mm 3 mps 752 mmHg 66%
    10:00 +28°C° 0 mm 3 mps 752 mmHg 55%
    11:00 +30°C° 0 mm 2 mps 752 mmHg 45%
    12:00 +29°C° 0 mm 3 mps 752 mmHg 48%
    13:00 +29°C° 0 mm 4 mps 751 mmHg 51%
    14:00 +28°C° 0 mm 4 mps 751 mmHg 55%
    15:00 +27°C° 0 mm 4 mps 751 mmHg 58%
    16:00 +26°C° 0 mm 4 mps 751 mmHg 62%
    17:00 +25°C° 0 mm 4 mps 751 mmHg 66%
    18:00 +23°C° 0 mm 4 mps 752 mmHg 74%
    19:00 +22°C° 0 mm 3 mps 753 mmHg 82%
    20:00 +20°C° 0 mm 2 mps 753 mmHg 90%
    21:00 +20°C° 0 mm 2 mps 753 mmHg 91%
    22:00 +21°C° 0 mm 1 mps 754 mmHg 93%
    23:00 +20°C° 0 mm 1 mps 754 mmHg 95%

    1 March, Sunday

    Time Temperature Precipitation Wind Pressure Humidity
    00:00 +20°C° 0 mm 1 mps 754 mmHg 96%
    01:00 +20°C° 0 mm 1 mps 754 mmHg 96%
    02:00 +20°C° 0 mm 1 mps 754 mmHg 96%
    03:00 +19°C° 0 mm 2 mps 754 mmHg 96%
    04:00 +19°C° 0 mm 2 mps 755 mmHg 95%
    05:00 +19°C° 0 mm 2 mps 755 mmHg 94%
    06:00 +20°C° 0.1 mm 4 mps 756 mmHg 88%
    07:00 +21°C° 0.1 mm 5 mps 756 mmHg 83%
    08:00 +22°C° 0.1 mm 7 mps 757 mmHg 77%
    09:00 +23°C° 0.1 mm 7 mps 757 mmHg 73%
    10:00 +24°C° 0.1 mm 7 mps 757 mmHg 70%
    11:00 +24°C° 0.1 mm 8 mps 757 mmHg 67%
    12:00 +24°C° 0.1 mm 8 mps 757 mmHg 70%
    13:00 +23°C° 0.1 mm 8 mps 757 mmHg 73%
    14:00 +22°C° 0.1 mm 8 mps 757 mmHg 77%
    15:00 +22°C° 0.1 mm 8 mps 757 mmHg 79%
    16:00 +22°C° 0.1 mm 9 mps 758 mmHg 81%
    17:00 +21°C° 0.1 mm 9 mps 758 mmHg 83%
    18:00 +21°C° 0.1 mm 9 mps 758 mmHg 83%
    19:00 +21°C° 0.1 mm 9 mps 759 mmHg 83%
    20:00 +21°C° 0.1 mm 9 mps 759 mmHg 83%
    21:00 +21°C° 0.1 mm 9 mps 760 mmHg 84%
    22:00 +21°C° 0.1 mm 9 mps 760 mmHg 84%
    23:00 +21°C° 0.1 mm 9 mps 760 mmHg 84%

    2 March, Monday

    Time Temperature Precipitation Wind Pressure Humidity
    00:00 +21°C° 0.1 mm 9 mps 759 mmHg 84%
    01:00 +21°C° 0.1 mm 8 mps 759 mmHg 83%
    02:00 +20°C° 0.1 mm 8 mps 759 mmHg 83%
    03:00 +20°C° 0 mm 8 mps 759 mmHg 82%
    04:00 +20°C° 0 mm 8 mps 759 mmHg 81%
    05:00 +20°C° 0 mm 8 mps 759 mmHg 81%
    06:00 +21°C° 0 mm 9 mps 759 mmHg 80%
    07:00 +21°C° 0 mm 9 mps 759 mmHg 79%
    08:00 +21°C° 0 mm 9 mps 759 mmHg 78%
    09:00 +22°C° 0 mm 9 mps 759 mmHg 74%
    10:00 +23°C° 0 mm 9 mps 759 mmHg 70%
    11:00 +24°C° 0 mm 10 mps 759 mmHg 66%
    12:00 +24°C° 0 mm 10 mps 759 mmHg 66%
    13:00 +24°C° 0 mm 10 mps 759 mmHg 66%
    14:00 +24°C° 0 mm 10 mps 758 mmHg 66%
    15:00 +23°C° 0 mm 10 mps 758 mmHg 68%
    16:00 +23°C° 0 mm 10 mps 758 mmHg 70%
    17:00 +22°C° 0 mm 10 mps 757 mmHg 71%
    18:00 +22°C° 0 mm 10 mps 758 mmHg 74%
    19:00 +21°C° 0 mm 9 mps 758 mmHg 76%
    20:00 +21°C° 0 mm 9 mps 759 mmHg 78%
    21:00 +21°C° 0 mm 9 mps 759 mmHg 78%
    22:00 +21°C° 0 mm 9 mps 759 mmHg 79%
    23:00 +19°C° 0 mm 9 mps 759 mmHg 79%
    Show more